EW3204 Weather Reports


Display with metric or nautical units.
time (UTC)temp
F
wind
direction
speed
MPH
gust
MPH
rain 1hr
in
rain 24hr
in
rain mn
in
humidity
%
barometer
mb
20260831121555 80 300 2.0 0.0 0.00 0.00 0.00 22 1005.9
20260831120054 80 327 2.0 0.0 0.00 0.00 0.00 21 1005.7
20260831114551 81 32 1.0 0.0 0.00 0.00 0.00 21 1005.8
20260831113050 82 32 2.0 0.0 0.00 0.00 0.00 20 1005.8
20260831111546 83 175 2.0 0.0 0.00 0.00 0.00 19 1005.8
20260831110151 83 139 2.0 0.0 0.00 0.00 0.00 19 1005.7
20260831104523 83 102 5.0 0.0 0.00 0.00 0.00 19 1005.5
20260831103015 85 167 2.0 0.0 0.00 0.00 0.00 18 1005.4
20260831101506 86 113 3.0 0.0 0.00 0.00 0.00 17 1005.3
20260831100005 87 267 5.0 0.0 0.00 0.00 0.00 16 1005.1
20260831094556 87 202 4.0 0.0 0.00 0.00 0.00 17 1005.2
20260831093059 87 157 4.0 0.0 0.00 0.00 0.00 16 1005.4
20260831091534 88 260 8.0 0.0 0.00 0.00 0.00 15 1005.2
20260831090033 88 269 5.0 0.0 0.00 0.00 0.00 16 1005.3
20260831084642 87 302 2.0 0.0 0.00 0.00 0.00 17 1005.6
20260831083027 88 279 4.0 0.0 0.00 0.00 0.00 16 1005.7
20260831081526 88 239 4.0 0.0 0.00 0.00 0.00 17 1005.9
20260831080041 89 250 8.0 0.0 0.00 0.00 0.00 16 1005.8
20260831074524 89 243 7.0 0.0 0.00 0.00 0.00 16 1005.9
20260831073023 88 305 5.0 0.0 0.00 0.00 0.00 16 1005.9
20260831071535 89 282 7.0 0.0 0.00 0.00 0.00 16 1005.9
20260831070018 90 246 9.0 0.0 0.00 0.00 0.00 16 1005.8
20260831064517 90 253 9.0 0.0 0.00 0.00 0.00 17 1005.9
20260831063017 90 254 9.0 0.0 0.00 0.00 0.00 17 1005.9
20260831061515 90 240 7.0 0.0 0.00 0.00 0.00 17 1005.7
20260831054514 90 1 3.0 0.0 0.00 0.00 0.00 17 1005.6
20260831053014 90 298 7.0 0.0 0.00 0.00 0.00 17 1005.4
20260831051516 90 268 5.0 0.0 0.00 0.00 0.00 17 1005.3
20260831050012 90 285 7.0 0.0 0.00 0.00 0.00 18 1005.4
20260831044511 91 281 9.0 0.0 0.00 0.00 0.00 17 1005.2
20260831043011 91 274 8.0 0.0 0.00 0.00 0.00 18 1005.1
20260831041518 91 258 6.0 0.0 0.00 0.00 0.00 17 1005.0
20260831040016 91 265 8.0 0.0 0.00 0.00 0.00 18 1004.9
20260831034510 91 266 9.0 0.0 0.00 0.00 0.00 18 1004.7
20260831033018 92 273 11.0 0.0 0.00 0.00 0.00 17 1004.4
20260831031508 92 262 11.0 0.0 0.00 0.00 0.00 17 1004.1
20260831030008 93 263 13.0 0.0 0.00 0.00 0.00 17 1003.9
20260831024509 93 281 10.0 0.0 0.00 0.00 0.00 17 1003.9
20260831023011 94 270 11.0 0.0 0.00 0.00 0.00 17 1003.9
20260831021504 94 277 12.0 0.0 0.00 0.00 0.00 17 1003.6
20260831020004 95 289 10.0 0.0 0.00 0.00 0.00 17 1003.7
20260831014503 96 292 10.0 0.0 0.00 0.00 0.00 17 1003.6
20260831013002 98 277 11.0 0.0 0.00 0.00 0.00 16 1003.5
20260831011600 99 279 10.0 0.0 0.00 0.00 0.00 16 1003.4
20260831010117 99 260 11.0 0.0 0.00 0.00 0.00 17 1003.2
20260831004607 100 243 10.0 0.0 0.00 0.00 0.00 17 1003.1
20260831003059 101 273 10.0 0.0 0.00 0.00 0.00 17 1003.1
20260831001558 101 228 11.0 0.0 0.00 0.00 0.00 17 1003.0
20260831000106 102 312 12.0 0.0 0.00 0.00 0.00 17 1002.8
20260830234622 102 318 12.0 0.0 0.00 0.00 0.00 16 1002.9
20260830233056 102 279 11.0 0.0 0.00 0.00 0.00 17 1002.9
20260830231556 103 263 13.0 0.0 0.00 0.00 0.00 17 1002.9
20260830231507 103 279 13.0 0.0 0.00 0.00 0.00 17 1002.9
20260830230055 104 270 11.0 0.0 0.00 0.00 0.00 16 1002.9
20260830224554 104 302 12.0 0.0 0.00 0.00 0.00 17 1003.0
20260830223053 105 272 9.0 0.0 0.00 0.00 0.00 17 1003.0
20260830221549 104 284 14.0 0.0 0.00 0.00 0.00 17 1003.3
20260830220046 103 56 6.0 0.0 0.00 0.00 0.00 16 1003.6
20260830214545 103 81 4.0 0.0 0.00 0.00 0.00 16 1003.7
20260830213055 103 77 5.0 0.0 0.00 0.00 0.00 16 1004.1
20260830211540 103 6 4.0 0.0 0.00 0.00 0.00 17 1004.3
20260830210039 103 27 5.0 0.0 0.00 0.00 0.00 17 1004.6
20260830204542 102 32 4.0 0.0 0.00 0.00 0.00 17 1004.9
20260830203036 102 322 3.0 0.0 0.00 0.00 0.00 17 1005.0
20260830201533 101 51 4.0 0.0 0.00 0.00 0.00 18 1005.3
20260830200032 101 18 5.0 0.0 0.00 0.00 0.00 18 1005.6
20260830194534 101 23 2.0 0.0 0.00 0.00 0.00 18 1005.8
20260830193033 100 337 3.0 0.0 0.00 0.00 0.00 19 1005.9
20260830191534 100 28 5.0 0.0 0.00 0.00 0.00 19 1006.2
20260830190025 99 229 2.0 0.0 0.00 0.00 0.00 19 1006.4
20260830184535 99 42 2.0 0.0 0.00 0.00 0.00 19 1006.7
20260830183021 97 47 6.0 0.0 0.00 0.00 0.00 20 1006.8
20260830181519 97 5 2.0 0.0 0.00 0.00 0.00 20 1007.0
20260830180018 97 65 3.0 0.0 0.00 0.00 0.00 20 1007.1
20260830174519 96 60 5.0 0.0 0.00 0.00 0.00 20 1007.0
20260830173019 97 58 4.0 0.0 0.00 0.00 0.00 20 1007.1
20260830171518 97 52 2.0 0.0 0.00 0.00 0.00 20 1007.0
20260830170014 97 24 1.0 0.0 0.00 0.00 0.00 21 1007.0
20260830164510 94 92 4.0 0.0 0.00 0.00 0.00 22 1007.0
20260830163009 94 108 5.0 0.0 0.00 0.00 0.00 23 1007.1
20260830161506 94 100 4.0 0.0 0.00 0.00 0.00 23 1007.0
20260830160005 93 115 4.0 0.0 0.00 0.00 0.00 24 1006.9
20260830154504 92 107 3.0 0.0 0.00 0.00 0.00 25 1006.8
20260830153002 91 90 4.0 0.0 0.00 0.00 0.00 26 1006.7
20260830151502 92 263 2.0 0.0 0.00 0.00 0.00 25 1006.7
20260830150118 91 263 1.0 0.0 0.00 0.00 0.00 26 1006.6
20260830144559 89 263 2.0 0.0 0.00 0.00 0.00 28 1006.6
20260830143100 87 291 1.0 0.0 0.00 0.00 0.00 29 1006.6
20260830141559 85 291 2.0 0.0 0.00 0.00 0.00 30 1006.5
20260830140057 86 291 2.0 0.0 0.00 0.00 0.00 30 1006.5
20260830134558 85 183 2.0 0.0 0.00 0.00 0.00 30 1006.4
20260830133055 85 183 2.0 0.0 0.00 0.00 0.00 30 1006.3
20260830131552 84 182 1.0 0.0 0.00 0.00 0.00 30 1006.1
20260830130053 86 183 3.0 0.0 0.00 0.00 0.00 29 1005.9
20260830124549 85 183 3.0 0.0 0.00 0.00 0.00 30 1005.8
20260830123049 86 182 3.0 0.0 0.00 0.00 0.00 29 1005.7